| time (UTC) | temp C | wind direction | speed KPH | gust KPH | rain 1hr cm | rain 24hr cm | rain mn cm | humidity % | barometer mb |
| 20260506192215 | 18 | 230 | 16.1 | 29.0 | 0.00 | 0.13 | 0.13 | 79 | 1007.7 |
| 20260506191709 | 18 | 220 | 14.5 | 32.2 | 0.00 | 0.13 | 0.13 | 79 | 1007.6 |
| 20260506191204 | 18 | 200 | 14.5 | 32.2 | 0.00 | 0.13 | 0.13 | 79 | 1007.7 |
| 20260506190928 | 18 | 217 | 12.9 | 25.7 | 0.00 | 0.13 | 0.13 | 79 | 1007.6 |
| 20260506190151 | 18 | 219 | 9.7 | 20.9 | 0.00 | 0.13 | 0.13 | 80 | 1007.6 |
| 20260506185645 | 18 | 191 | 9.7 | 20.9 | 0.00 | 0.13 | 0.13 | 80 | 1007.7 |
| 20260506185140 | 18 | 205 | 9.7 | 20.9 | 0.00 | 0.13 | 0.13 | 80 | 1007.8 |
| 20260506184633 | 18 | 195 | 9.7 | 29.0 | 0.00 | 0.13 | 0.13 | 81 | 1007.8 |
| 20260506184127 | 18 | 190 | 11.3 | 29.0 | 0.00 | 0.13 | 0.13 | 81 | 1007.9 |
| 20260506183621 | 18 | 223 | 16.1 | 33.8 | 0.00 | 0.13 | 0.13 | 80 | 1008.0 |
| 20260506183115 | 18 | 186 | 19.3 | 35.4 | 0.00 | 0.13 | 0.13 | 80 | 1007.9 |
| 20260506182610 | 18 | 182 | 19.3 | 35.4 | 0.00 | 0.13 | 0.13 | 79 | 1007.9 |
| 20260506182103 | 18 | 219 | 17.7 | 32.2 | 0.00 | 0.13 | 0.13 | 78 | 1008.0 |
| 20260506181557 | 18 | 196 | 16.1 | 32.2 | 0.00 | 0.13 | 0.13 | 78 | 1007.9 |
| 20260506181051 | 18 | 197 | 16.1 | 32.2 | 0.00 | 0.13 | 0.13 | 78 | 1007.9 |
| 20260506180548 | 18 | 242 | 17.7 | 33.8 | 0.00 | 0.13 | 0.13 | 77 | 1007.9 |
| 20260506180542 | 18 | 174 | 19.3 | 45.1 | 0.00 | 0.13 | 0.13 | 77 | 1008.0 |
| 20260506175533 | 18 | 222 | 19.3 | 45.1 | 0.00 | 0.13 | 0.13 | 77 | 1008.1 |
| 20260506175259 | 18 | 223 | 19.3 | 35.4 | 0.00 | 0.13 | 0.13 | 77 | 1008.1 |
| 20260506174752 | 18 | 209 | 19.3 | 38.6 | 0.00 | 0.13 | 0.13 | 78 | 1008.1 |
| 20260506174018 | 18 | 189 | 17.7 | 38.6 | 0.03 | 0.13 | 0.13 | 79 | 1008.3 |
| 20260506174011 | 18 | 208 | 16.1 | 37.0 | 0.03 | 0.13 | 0.13 | 79 | 1008.4 |
| 20260506173004 | 18 | 265 | 14.5 | 29.0 | 0.03 | 0.13 | 0.13 | 79 | 1008.4 |
| 20260506172457 | 18 | 217 | 16.1 | 33.8 | 0.05 | 0.13 | 0.13 | 79 | 1008.4 |
| 20260506171952 | 18 | 197 | 16.1 | 33.8 | 0.05 | 0.13 | 0.13 | 79 | 1008.5 |
| 20260506171446 | 18 | 207 | 16.1 | 33.8 | 0.08 | 0.13 | 0.13 | 79 | 1008.4 |
| 20260506170941 | 18 | 222 | 14.5 | 33.8 | 0.08 | 0.13 | 0.13 | 79 | 1008.4 |
| 20260506170433 | 18 | 207 | 12.9 | 27.4 | 0.10 | 0.13 | 0.13 | 80 | 1008.4 |
| 20260506165927 | 18 | 236 | 12.9 | 22.5 | 0.10 | 0.13 | 0.13 | 81 | 1008.4 |
| 20260506165422 | 18 | 208 | 11.3 | 24.1 | 0.10 | 0.13 | 0.13 | 82 | 1008.4 |
| 20260506165146 | 18 | 211 | 11.3 | 24.1 | 0.10 | 0.13 | 0.13 | 82 | 1008.5 |
| 20260506164410 | 18 | 238 | 11.3 | 22.5 | 0.10 | 0.13 | 0.13 | 83 | 1008.6 |
| 20260506163904 | 18 | 179 | 11.3 | 24.1 | 0.10 | 0.10 | 0.10 | 83 | 1008.6 |
| 20260506163357 | 18 | 185 | 9.7 | 24.1 | 0.10 | 0.10 | 0.10 | 82 | 1008.8 |
| 20260506162851 | 18 | 196 | 11.3 | 22.5 | 0.10 | 0.10 | 0.10 | 81 | 1009.1 |
| 20260506162345 | 18 | 227 | 11.3 | 22.5 | 0.08 | 0.08 | 0.08 | 80 | 1009.3 |
| 20260506161839 | 18 | 205 | 12.9 | 27.4 | 0.08 | 0.08 | 0.08 | 79 | 1009.4 |
| 20260506161333 | 18 | 226 | 14.5 | 27.4 | 0.05 | 0.05 | 0.05 | 77 | 1009.6 |
| 20260506160828 | 18 | 248 | 14.5 | 27.4 | 0.03 | 0.03 | 0.03 | 76 | 1009.7 |
| 20260506160321 | 18 | 199 | 16.1 | 33.8 | 0.03 | 0.03 | 0.03 | 76 | 1009.9 |
| 20260506155817 | 18 | 225 | 14.5 | 33.8 | 0.03 | 0.03 | 0.03 | 75 | 1010.0 |
| 20260506155318 | 18 | 221 | 14.5 | 30.6 | 0.03 | 0.03 | 0.03 | 76 | 1009.9 |
| 20260506154815 | 18 | 221 | 16.1 | 30.6 | 0.03 | 0.03 | 0.03 | 75 | 1010.0 |
| 20260506154316 | 19 | 205 | 12.9 | 29.0 | 0.03 | 0.03 | 0.03 | 74 | 1010.0 |
| 20260506153816 | 19 | 247 | 14.5 | 40.2 | 0.00 | 0.00 | 0.00 | 73 | 1009.9 |
| 20260506153316 | 19 | 228 | 16.1 | 40.2 | 0.00 | 0.00 | 0.00 | 71 | 1009.7 |
| 20260506152816 | 19 | 218 | 17.7 | 41.8 | 0.00 | 0.00 | 0.00 | 70 | 1009.8 |
| 20260506152316 | 20 | 233 | 17.7 | 41.8 | 0.00 | 0.00 | 0.00 | 70 | 1009.8 |
| 20260506151818 | 20 | 211 | 17.7 | 33.8 | 0.00 | 0.00 | 0.00 | 67 | 1009.8 |
| 20260506151814 | 20 | 169 | 17.7 | 33.8 | 0.00 | 0.00 | 0.00 | 68 | 1009.9 |
| 20260506150812 | 20 | 210 | 17.7 | 33.8 | 0.00 | 0.00 | 0.00 | 65 | 1009.4 |
| 20260506150313 | 20 | 155 | 19.3 | 40.2 | 0.00 | 0.00 | 0.00 | 65 | 1009.6 |
| 20260506150043 | 20 | 196 | 17.7 | 40.2 | 0.00 | 0.00 | 0.00 | 65 | 1009.7 |
| 20260506145545 | 20 | 271 | 16.1 | 27.4 | 0.00 | 0.00 | 0.00 | 66 | 1009.8 |
| 20260506144813 | 20 | 243 | 17.7 | 27.4 | 0.00 | 0.00 | 0.00 | 66 | 1009.9 |
| 20260506144314 | 20 | 229 | 17.7 | 35.4 | 0.00 | 0.00 | 0.00 | 65 | 1009.9 |
| 20260506143806 | 20 | 216 | 17.7 | 35.4 | 0.00 | 0.00 | 0.00 | 64 | 1010.0 |
| 20260506143307 | 20 | 223 | 17.7 | 37.0 | 0.00 | 0.00 | 0.00 | 64 | 1010.0 |
| 20260506142804 | 20 | 156 | 19.3 | 45.1 | 0.00 | 0.00 | 0.00 | 63 | 1009.8 |
| 20260506142535 | 20 | 217 | 19.3 | 45.1 | 0.00 | 0.00 | 0.00 | 63 | 1009.8 |
| 20260506141805 | 20 | 221 | 19.3 | 38.6 | 0.00 | 0.00 | 0.00 | 63 | 1009.7 |
| 20260506141305 | 20 | 216 | 19.3 | 32.2 | 0.00 | 0.00 | 0.00 | 63 | 1009.8 |
| 20260506140805 | 20 | 227 | 19.3 | 33.8 | 0.00 | 0.00 | 0.00 | 64 | 1009.8 |
| 20260506140539 | 20 | 236 | 16.1 | 35.4 | 0.00 | 0.00 | 0.00 | 64 | 1009.7 |
| 20260506135805 | 20 | 190 | 16.1 | 35.4 | 0.00 | 0.00 | 0.00 | 65 | 1009.7 |
| 20260506135306 | 20 | 242 | 17.7 | 35.4 | 0.00 | 0.00 | 0.00 | 66 | 1009.7 |
| 20260506134801 | 20 | 182 | 17.7 | 35.4 | 0.00 | 0.00 | 0.00 | 66 | 1009.7 |
| 20260506134302 | 20 | 223 | 16.1 | 35.4 | 0.00 | 0.00 | 0.00 | 66 | 1009.6 |
| 20260506133801 | 20 | 232 | 16.1 | 41.8 | 0.00 | 0.00 | 0.00 | 67 | 1009.7 |
| 20260506133302 | 20 | 180 | 16.1 | 41.8 | 0.00 | 0.00 | 0.00 | 67 | 1009.7 |
| 20260506133032 | 20 | 205 | 16.1 | 41.8 | 0.00 | 0.00 | 0.00 | 67 | 1009.7 |
| 20260506132301 | 20 | 214 | 17.7 | 41.8 | 0.00 | 0.00 | 0.00 | 67 | 1009.7 |
| 20260506131803 | 20 | 183 | 17.7 | 38.6 | 0.00 | 0.00 | 0.00 | 67 | 1009.8 |
| 20260506131534 | 20 | 192 | 19.3 | 38.6 | 0.00 | 0.00 | 0.00 | 67 | 1009.9 |
| 20260506130802 | 20 | 213 | 19.3 | 38.6 | 0.00 | 0.00 | 0.00 | 67 | 1009.9 |
| 20260506130528 | 20 | 226 | 17.7 | 33.8 | 0.00 | 0.00 | 0.00 | 68 | 1010.1 |
| 20260506125756 | 20 | 211 | 16.1 | 33.8 | 0.00 | 0.00 | 0.00 | 68 | 1010.0 |
| 20260506125258 | 20 | 207 | 17.7 | 35.4 | 0.00 | 0.00 | 0.00 | 68 | 1009.8 |
| 20260506124758 | 20 | 229 | 17.7 | 35.4 | 0.00 | 0.00 | 0.00 | 68 | 1009.9 |
| 20260506124257 | 20 | 237 | 16.1 | 37.0 | 0.00 | 0.00 | 0.00 | 69 | 1010.0 |
| 20260506123758 | 19 | 209 | 19.3 | 37.0 | 0.00 | 0.00 | 0.00 | 69 | 1009.9 |
| 20260506123259 | 20 | 191 | 19.3 | 37.0 | 0.00 | 0.00 | 0.00 | 68 | 1009.8 |
| 20260506122759 | 19 | 196 | 16.1 | 33.8 | 0.00 | 0.00 | 0.00 | 69 | 1009.8 |
| 20260506122259 | 19 | 200 | 16.1 | 33.8 | 0.00 | 0.00 | 0.00 | 70 | 1009.7 |
| 20260506121753 | 19 | 193 | 14.5 | 29.0 | 0.00 | 0.00 | 0.00 | 70 | 1009.7 |
| 20260506121255 | 18 | 232 | 14.5 | 32.2 | 0.00 | 0.00 | 0.00 | 71 | 1009.8 |
| 20260506121026 | 18 | 178 | 14.5 | 32.2 | 0.00 | 0.00 | 0.00 | 71 | 1010.0 |
| 20260506120252 | 18 | 211 | 16.1 | 30.6 | 0.00 | 0.00 | 0.00 | 72 | 1010.0 |
| 20260506115754 | 18 | 184 | 17.7 | 30.6 | 0.00 | 0.00 | 0.00 | 71 | 1009.8 |
| 20260506115252 | 18 | 201 | 16.1 | 29.0 | 0.00 | 0.00 | 0.00 | 71 | 1010.0 |
| 20260506114752 | 18 | 221 | 16.1 | 32.2 | 0.00 | 0.00 | 0.00 | 72 | 1010.0 |
| 20260506114252 | 18 | 214 | 16.1 | 33.8 | 0.00 | 0.00 | 0.00 | 72 | 1009.9 |
| 20260506113751 | 18 | 194 | 14.5 | 33.8 | 0.00 | 0.00 | 0.00 | 72 | 1009.9 |
| 20260506113251 | 18 | 181 | 16.1 | 27.4 | 0.00 | 0.00 | 0.00 | 72 | 1010.0 |
| 20260506112750 | 18 | 153 | 16.1 | 27.4 | 0.00 | 0.00 | 0.00 | 72 | 1010.1 |
| 20260506112251 | 18 | 238 | 12.9 | 29.0 | 0.00 | 0.00 | 0.00 | 72 | 1009.9 |
| 20260506111745 | 18 | 206 | 16.1 | 37.0 | 0.00 | 0.00 | 0.00 | 72 | 1010.0 |
| 20260506111239 | 18 | 232 | 16.1 | 37.0 | 0.00 | 0.00 | 0.00 | 72 | 1009.9 |
| 20260506110733 | 18 | 199 | 16.1 | 35.4 | 0.00 | 0.00 | 0.00 | 73 | 1009.9 |
| 20260506110227 | 18 | 194 | 14.5 | 32.2 | 0.00 | 0.00 | 0.00 | 73 | 1009.9 |
| 20260506105721 | 18 | 176 | 14.5 | 32.2 | 0.00 | 0.00 | 0.00 | 74 | 1009.9 |
| 20260506105214 | 18 | 206 | 14.5 | 32.2 | 0.00 | 0.00 | 0.00 | 74 | 1009.9 |
| 20260506104709 | 18 | 180 | 14.5 | 29.0 | 0.00 | 0.00 | 0.00 | 74 | 1009.9 |
| 20260506104203 | 18 | 198 | 16.1 | 29.0 | 0.00 | 0.00 | 0.00 | 75 | 1009.8 |
| 20260506103928 | 18 | 194 | 12.9 | 25.7 | 0.00 | 0.00 | 0.00 | 75 | 1010.0 |
| 20260506103155 | 17 | 211 | 11.3 | 22.5 | 0.00 | 0.00 | 0.00 | 76 | 1009.9 |
| 20260506102652 | 17 | 171 | 12.9 | 33.8 | 0.00 | 0.00 | 0.00 | 76 | 1009.8 |
| 20260506102152 | 17 | 166 | 12.9 | 33.8 | 0.00 | 0.00 | 0.00 | 76 | 1009.8 |
| 20260506101653 | 17 | 178 | 12.9 | 27.4 | 0.00 | 0.00 | 0.00 | 76 | 1009.9 |
| 20260506101152 | 17 | 194 | 12.9 | 27.4 | 0.00 | 0.00 | 0.00 | 76 | 1009.9 |
| 20260506100652 | 17 | 207 | 11.3 | 24.1 | 0.00 | 0.00 | 0.00 | 76 | 1010.0 |
| 20260506100153 | 18 | 204 | 11.3 | 24.1 | 0.00 | 0.00 | 0.00 | 76 | 1010.0 |
| 20260506095653 | 18 | 188 | 11.3 | 24.1 | 0.00 | 0.00 | 0.00 | 76 | 1010.0 |
| 20260506095154 | 18 | 94 | 11.3 | 24.1 | 0.00 | 0.00 | 0.00 | 76 | 1009.9 |
| 20260506094651 | 18 | 221 | 11.3 | 24.1 | 0.00 | 0.00 | 0.00 | 76 | 1009.8 |
| 20260506094150 | 18 | 186 | 11.3 | 24.1 | 0.00 | 0.00 | 0.00 | 76 | 1009.9 |
| 20260506093650 | 18 | 238 | 12.9 | 24.1 | 0.00 | 0.00 | 0.00 | 76 | 1009.8 |
| 20260506093150 | 18 | 194 | 14.5 | 30.6 | 0.00 | 0.00 | 0.00 | 76 | 1009.8 |
| 20260506092652 | 18 | 223 | 14.5 | 30.6 | 0.00 | 0.00 | 0.00 | 76 | 1009.7 |
| 20260506092153 | 18 | 224 | 12.9 | 22.5 | 0.00 | 0.00 | 0.00 | 75 | 1009.8 |
| 20260506091924 | 18 | 192 | 11.3 | 27.4 | 0.00 | 0.00 | 0.00 | 75 | 1009.7 |
| 20260506091152 | 18 | 194 | 12.9 | 25.7 | 0.00 | 0.00 | 0.00 | 75 | 1009.8 |
| 20260506090646 | 18 | 194 | 11.3 | 25.7 | 0.00 | 0.00 | 0.00 | 75 | 1009.9 |
| 20260506090141 | 18 | 209 | 11.3 | 25.7 | 0.00 | 0.00 | 0.00 | 75 | 1010.0 |
| 20260506085634 | 18 | 198 | 11.3 | 25.7 | 0.00 | 0.00 | 0.00 | 75 | 1009.9 |
| 20260506085128 | 18 | 190 | 12.9 | 25.7 | 0.00 | 0.00 | 0.00 | 75 | 1009.9 |
| 20260506084621 | 18 | 204 | 12.9 | 25.7 | 0.00 | 0.00 | 0.00 | 75 | 1009.9 |
| 20260506084117 | 18 | 198 | 12.9 | 25.7 | 0.00 | 0.00 | 0.00 | 75 | 1010.0 |
| 20260506083610 | 18 | 213 | 11.3 | 24.1 | 0.00 | 0.00 | 0.00 | 75 | 1010.0 |
| 20260506083104 | 18 | 184 | 12.9 | 24.1 | 0.00 | 0.00 | 0.00 | 74 | 1010.1 |
| 20260506082558 | 18 | 183 | 14.5 | 25.7 | 0.00 | 0.00 | 0.00 | 74 | 1010.1 |
| 20260506082053 | 18 | 157 | 16.1 | 32.2 | 0.00 | 0.00 | 0.00 | 74 | 1010.0 |
| 20260506081546 | 18 | 194 | 14.5 | 32.2 | 0.00 | 0.00 | 0.00 | 74 | 1010.1 |
| 20260506081040 | 18 | 183 | 14.5 | 27.4 | 0.00 | 0.00 | 0.00 | 74 | 1010.1 |
| 20260506080535 | 18 | 221 | 14.5 | 27.4 | 0.00 | 0.00 | 0.00 | 74 | 1010.1 |
| 20260506073459 | 18 | 209 | 11.3 | 22.5 | 0.00 | 0.00 | 0.00 | 74 | 1010.1 |
| 20260506073224 | 18 | 193 | 11.3 | 20.9 | 0.00 | 0.00 | 0.00 | 74 | 1010.2 |
| 20260506072446 | 18 | 200 | 11.3 | 20.9 | 0.00 | 0.00 | 0.00 | 74 | 1010.2 |
| 20260506071941 | 18 | 188 | 11.3 | 20.9 | 0.00 | 0.00 | 0.00 | 74 | 1010.3 |
| 20260506071705 | 18 | 187 | 9.7 | 20.9 | 0.00 | 0.00 | 0.00 | 74 | 1010.3 |
| 20260506070928 | 18 | 227 | 8.0 | 17.7 | 0.00 | 0.00 | 0.00 | 74 | 1010.3 |
| 20260506070422 | 18 | 161 | 8.0 | 17.7 | 0.00 | 0.00 | 0.00 | 74 | 1010.4 |
| 20260506062335 | 19 | 192 | 8.0 | 16.1 | 0.00 | 0.00 | 0.00 | 72 | 1010.5 |
| 20260506061829 | 19 | 196 | 8.0 | 20.9 | 0.00 | 0.00 | 0.00 | 71 | 1010.5 |
| 20260506061323 | 20 | 189 | 9.7 | 20.9 | 0.00 | 0.00 | 0.00 | 71 | 1010.5 |
| 20260506060817 | 20 | 195 | 9.7 | 19.3 | 0.00 | 0.00 | 0.00 | 71 | 1010.5 |
| 20260506060310 | 20 | 189 | 9.7 | 19.3 | 0.00 | 0.00 | 0.00 | 71 | 1010.5 |
| 20260506051210 | 20 | 225 | 14.5 | 25.7 | 0.00 | 0.00 | 0.00 | 68 | 1010.9 |
| 20260506050704 | 20 | 186 | 12.9 | 24.1 | 0.00 | 0.00 | 0.00 | 68 | 1011.0 |
| 20260506050159 | 20 | 213 | 11.3 | 24.1 | 0.00 | 0.00 | 0.00 | 68 | 1011.0 |
| 20260506044923 | 20 | 217 | 12.9 | 27.4 | 0.00 | 0.00 | 0.00 | 67 | 1011.0 |
| 20260506044151 | 20 | 251 | 12.9 | 24.1 | 0.00 | 0.00 | 0.00 | 66 | 1011.0 |
| 20260506043651 | 20 | 257 | 11.3 | 24.1 | 0.00 | 0.00 | 0.00 | 66 | 1011.0 |
| 20260506043150 | 20 | 207 | 11.3 | 22.5 | 0.00 | 0.00 | 0.00 | 66 | 1010.9 |
| 20260506042651 | 20 | 182 | 14.5 | 27.4 | 0.00 | 0.00 | 0.00 | 66 | 1011.0 |
| 20260506042151 | 20 | 227 | 14.5 | 29.0 | 0.00 | 0.00 | 0.00 | 65 | 1010.9 |
| 20260506041652 | 20 | 207 | 12.9 | 29.0 | 0.00 | 0.00 | 0.00 | 65 | 1011.0 |
| 20260506041150 | 20 | 213 | 14.5 | 35.4 | 0.00 | 0.00 | 0.00 | 64 | 1011.0 |
| 20260506040924 | 20 | 182 | 16.1 | 35.4 | 0.00 | 0.00 | 0.00 | 64 | 1010.9 |
| 20260506040150 | 20 | 194 | 16.1 | 30.6 | 0.00 | 0.00 | 0.00 | 64 | 1010.9 |
| 20260506035922 | 20 | 178 | 14.5 | 29.0 | 0.00 | 0.00 | 0.00 | 63 | 1010.8 |
| 20260506035150 | 21 | 184 | 16.1 | 29.0 | 0.00 | 0.00 | 0.00 | 63 | 1010.8 |
| 20260506034652 | 21 | 215 | 16.1 | 29.0 | 0.00 | 0.00 | 0.00 | 63 | 1010.8 |
| 20260506034147 | 21 | 192 | 16.1 | 30.6 | 0.00 | 0.00 | 0.00 | 63 | 1010.7 |
| 20260506033648 | 21 | 218 | 17.7 | 41.8 | 0.00 | 0.00 | 0.00 | 62 | 1010.8 |
| 20260506033148 | 21 | 170 | 16.1 | 41.8 | 0.00 | 0.00 | 0.00 | 62 | 1010.8 |
| 20260506032648 | 21 | 205 | 14.5 | 32.2 | 0.00 | 0.00 | 0.00 | 62 | 1010.8 |
| 20260506032149 | 21 | 227 | 16.1 | 32.2 | 0.00 | 0.00 | 0.00 | 61 | 1010.9 |
| 20260506031648 | 21 | 245 | 16.1 | 32.2 | 0.00 | 0.00 | 0.00 | 61 | 1010.9 |
| 20260506031147 | 21 | 210 | 17.7 | 32.2 | 0.00 | 0.00 | 0.00 | 61 | 1010.9 |
| 20260506030648 | 21 | 203 | 16.1 | 33.8 | 0.00 | 0.00 | 0.00 | 61 | 1010.9 |
| 20260506030148 | 21 | 218 | 16.1 | 33.8 | 0.00 | 0.00 | 0.00 | 60 | 1011.0 |
| 20260506025649 | 21 | 200 | 16.1 | 33.8 | 0.00 | 0.00 | 0.00 | 60 | 1010.9 |
| 20260506025148 | 21 | 161 | 16.1 | 33.8 | 0.00 | 0.00 | 0.00 | 59 | 1010.9 |
| 20260506024647 | 21 | 180 | 16.1 | 33.8 | 0.00 | 0.00 | 0.00 | 58 | 1010.9 |
| 20260506024148 | 21 | 195 | 17.7 | 33.8 | 0.00 | 0.00 | 0.00 | 59 | 1011.0 |
| 20260506023653 | 21 | 219 | 19.3 | 33.8 | 0.00 | 0.00 | 0.00 | 58 | 1010.9 |
| 20260506023647 | 21 | 188 | 17.7 | 33.8 | 0.00 | 0.00 | 0.00 | 58 | 1010.9 |
| 20260506022649 | 21 | 214 | 17.7 | 35.4 | 0.00 | 0.00 | 0.00 | 57 | 1010.9 |
| 20260506022149 | 21 | 148 | 16.1 | 35.4 | 0.00 | 0.00 | 0.00 | 57 | 1010.9 |
| 20260506021648 | 21 | 215 | 14.5 | 33.8 | 0.00 | 0.00 | 0.00 | 56 | 1011.0 |
| 20260506021148 | 22 | 227 | 14.5 | 30.6 | 0.00 | 0.00 | 0.00 | 56 | 1011.0 |
| 20260506020640 | 21 | 211 | 14.5 | 30.6 | 0.00 | 0.00 | 0.00 | 57 | 1010.9 |
| 20260506020135 | 21 | 203 | 12.9 | 30.6 | 0.00 | 0.00 | 0.00 | 57 | 1010.9 |
| 20260506015635 | 21 | 157 | 14.5 | 27.4 | 0.00 | 0.00 | 0.00 | 57 | 1011.0 |
| 20260506015137 | 21 | 218 | 14.5 | 27.4 | 0.00 | 0.00 | 0.00 | 57 | 1010.9 |
| 20260506014905 | 21 | 189 | 12.9 | 27.4 | 0.00 | 0.00 | 0.00 | 56 | 1010.8 |
| 20260506014135 | 22 | 333 | 12.9 | 27.4 | 0.00 | 0.00 | 0.00 | 56 | 1010.7 |
| 20260506013633 | 22 | 204 | 12.9 | 27.4 | 0.00 | 0.00 | 0.00 | 56 | 1010.7 |
| 20260506013133 | 22 | 192 | 12.9 | 29.0 | 0.00 | 0.00 | 0.00 | 56 | 1010.7 |
| 20260506012635 | 22 | 176 | 14.5 | 29.0 | 0.00 | 0.00 | 0.00 | 56 | 1010.6 |
| 20260506012403 | 22 | 167 | 12.9 | 27.4 | 0.00 | 0.00 | 0.00 | 56 | 1010.6 |
| 20260506011906 | 22 | 184 | 12.9 | 27.4 | 0.00 | 0.00 | 0.00 | 56 | 1010.5 |
| 20260506011132 | 22 | 204 | 14.5 | 27.4 | 0.00 | 0.00 | 0.00 | 56 | 1010.5 |
| 20260506010904 | 22 | 168 | 12.9 | 25.7 | 0.00 | 0.00 | 0.00 | 55 | 1010.4 |
| 20260506010133 | 22 | 176 | 14.5 | 29.0 | 0.00 | 0.00 | 0.00 | 54 | 1010.4 |
| 20260506005629 | 23 | 175 | 12.9 | 29.0 | 0.00 | 0.00 | 0.00 | 52 | 1010.4 |
| 20260506005131 | 23 | 225 | 12.9 | 24.1 | 0.00 | 0.00 | 0.00 | 50 | 1010.4 |
| 20260506004633 | 23 | 172 | 14.5 | 27.4 | 0.00 | 0.00 | 0.00 | 50 | 1010.2 |
| 20260506004131 | 23 | 180 | 12.9 | 27.4 | 0.00 | 0.00 | 0.00 | 49 | 1010.2 |
| 20260506003632 | 23 | 188 | 12.9 | 32.2 | 0.00 | 0.00 | 0.00 | 47 | 1010.1 |
| 20260506003357 | 23 | 206 | 16.1 | 32.2 | 0.00 | 0.00 | 0.00 | 46 | 1010.0 |
| 20260506002622 | 24 | 175 | 14.5 | 29.0 | 0.00 | 0.00 | 0.00 | 45 | 1009.9 |
| 20260506002121 | 24 | 225 | 14.5 | 27.4 | 0.00 | 0.00 | 0.00 | 44 | 1009.8 |
| 20260506001619 | 25 | 204 | 12.9 | 27.4 | 0.00 | 0.00 | 0.00 | 43 | 1009.7 |
| 20260506001119 | 25 | 175 | 12.9 | 22.5 | 0.00 | 0.00 | 0.00 | 43 | 1009.7 |
| 20260506000853 | 25 | 182 | 12.9 | 32.2 | 0.00 | 0.00 | 0.00 | 42 | 1009.6 |
| 20260506000119 | 25 | 211 | 14.5 | 32.2 | 0.00 | 0.00 | 0.00 | 40 | 1009.5 |
| 20260505235621 | 25 | 171 | 16.1 | 38.6 | 0.00 | 0.00 | 0.00 | 39 | 1009.5 |
| 20260505235118 | 25 | 207 | 16.1 | 38.6 | 0.00 | 0.00 | 0.00 | 39 | 1009.6 |
| 20260505234617 | 25 | 243 | 16.1 | 33.8 | 0.00 | 0.00 | 0.00 | 39 | 1009.4 |
| 20260505234349 | 25 | 195 | 16.1 | 33.8 | 0.00 | 0.00 | 0.00 | 39 | 1009.4 |
| 20260505233619 | 25 | 191 | 16.1 | 32.2 | 0.00 | 0.00 | 0.00 | 39 | 1009.3 |
| 20260505233118 | 25 | 197 | 16.1 | 32.2 | 0.00 | 0.00 | 0.00 | 39 | 1009.3 |
| 20260505232613 | 26 | 190 | 12.9 | 30.6 | 0.00 | 0.00 | 0.00 | 39 | 1009.2 |
| 20260505232112 | 26 | 154 | 14.5 | 27.4 | 0.00 | 0.00 | 0.00 | 38 | 1009.1 |
| 20260505231613 | 26 | 201 | 16.1 | 37.0 | 0.00 | 0.00 | 0.00 | 39 | 1009.1 |
| 20260505231114 | 26 | 207 | 17.7 | 37.0 | 0.00 | 0.00 | 0.00 | 38 | 1009.1 |
| 20260505230844 | 26 | 220 | 20.9 | 45.1 | 0.00 | 0.00 | 0.00 | 38 | 1009.1 |
| 20260505230344 | 26 | 208 | 22.5 | 45.1 | 0.00 | 0.00 | 0.00 | 38 | 1009.0 |
| 20260505225608 | 26 | 237 | 20.9 | 38.6 | 0.00 | 0.00 | 0.00 | 37 | 1008.9 |
| 20260505225101 | 26 | 200 | 19.3 | 38.6 | 0.00 | 0.00 | 0.00 | 37 | 1009.0 |
| 20260505224556 | 26 | 198 | 20.9 | 38.6 | 0.00 | 0.00 | 0.00 | 38 | 1009.0 |
| 20260505224049 | 26 | 244 | 22.5 | 40.2 | 0.00 | 0.00 | 0.00 | 37 | 1009.0 |
| 20260505223544 | 27 | 213 | 22.5 | 41.8 | 0.00 | 0.00 | 0.00 | 37 | 1008.8 |
| 20260505223037 | 27 | 238 | 20.9 | 41.8 | 0.00 | 0.00 | 0.00 | 36 | 1008.9 |
| 20260505222532 | 27 | 213 | 20.9 | 35.4 | 0.00 | 0.00 | 0.00 | 36 | 1008.9 |
| 20260505222256 | 27 | 245 | 20.9 | 35.4 | 0.00 | 0.00 | 0.00 | 35 | 1008.9 |
| 20260505221519 | 27 | 243 | 20.9 | 40.2 | 0.00 | 0.00 | 0.00 | 34 | 1008.8 |
| 20260505221243 | 27 | 175 | 20.9 | 40.2 | 0.00 | 0.00 | 0.00 | 34 | 1008.8 |
| 20260505220738 | 27 | 194 | 22.5 | 45.1 | 0.00 | 0.00 | 0.00 | 32 | 1008.9 |
| 20260505220001 | 27 | 189 | 24.1 | 43.5 | 0.00 | 0.00 | 0.00 | 32 | 1008.7 |
| 20260505215458 | 27 | 192 | 22.5 | 45.1 | 0.00 | 0.00 | 0.00 | 31 | 1008.7 |
| 20260505215451 | 27 | 191 | 20.9 | 38.6 | 0.00 | 0.00 | 0.00 | 31 | 1008.7 |
| 20260505214443 | 27 | 257 | 22.5 | 38.6 | 0.00 | 0.00 | 0.00 | 31 | 1008.7 |
| 20260505213937 | 27 | 211 | 22.5 | 38.6 | 0.00 | 0.00 | 0.00 | 30 | 1008.8 |
| 20260505213431 | 28 | 153 | 20.9 | 38.6 | 0.00 | 0.00 | 0.00 | 30 | 1008.8 |
| 20260505212925 | 28 | 198 | 20.9 | 40.2 | 0.00 | 0.00 | 0.00 | 30 | 1008.8 |
| 20260505212651 | 28 | 174 | 22.5 | 40.2 | 0.00 | 0.00 | 0.00 | 29 | 1008.7 |
| 20260505211914 | 28 | 232 | 22.5 | 53.1 | 0.00 | 0.00 | 0.00 | 29 | 1008.8 |
| 20260505211638 | 28 | 221 | 24.1 | 41.8 | 0.00 | 0.00 | 0.00 | 29 | 1008.7 |
| 20260505210901 | 28 | 230 | 24.1 | 43.5 | 0.00 | 0.00 | 0.00 | 29 | 1008.7 |
| 20260505210356 | 28 | 224 | 22.5 | 43.5 | 0.00 | 0.00 | 0.00 | 28 | 1008.5 |
| 20260505205849 | 28 | 174 | 20.9 | 40.2 | 0.00 | 0.00 | 0.00 | 28 | 1008.5 |
| 20260505205343 | 28 | 217 | 22.5 | 41.8 | 0.00 | 0.00 | 0.00 | 27 | 1008.6 |
| 20260505204837 | 28 | 261 | 22.5 | 41.8 | 0.00 | 0.00 | 0.00 | 27 | 1008.4 |
| 20260505204332 | 28 | 253 | 25.7 | 43.5 | 0.00 | 0.00 | 0.00 | 28 | 1008.4 |
| 20260505203826 | 28 | 224 | 25.7 | 45.1 | 0.00 | 0.00 | 0.00 | 27 | 1008.4 |
| 20260505203318 | 28 | 107 | 25.7 | 54.7 | 0.00 | 0.00 | 0.00 | 26 | 1008.5 |
| 20260505202817 | 28 | 173 | 25.7 | 54.7 | 0.00 | 0.00 | 0.00 | 28 | 1008.7 |
| 20260505202810 | 28 | 209 | 22.5 | 45.1 | 0.00 | 0.00 | 0.00 | 28 | 1008.5 |
| 20260505201802 | 28 | 265 | 20.9 | 40.2 | 0.00 | 0.00 | 0.00 | 29 | 1008.5 |
| 20260505201255 | 28 | 217 | 24.1 | 57.9 | 0.00 | 0.00 | 0.00 | 28 | 1008.7 |
| 20260505200749 | 28 | 243 | 27.4 | 57.9 | 0.00 | 0.00 | 0.00 | 28 | 1008.5 |
| 20260505200243 | 28 | 219 | 24.1 | 48.3 | 0.00 | 0.00 | 0.00 | 29 | 1008.6 |
| 20260505195737 | 28 | 189 | 22.5 | 48.3 | 0.00 | 0.00 | 0.00 | 30 | 1008.6 |
| 20260505195231 | 28 | 207 | 20.9 | 43.5 | 0.00 | 0.00 | 0.00 | 31 | 1008.6 |
| 20260505194726 | 28 | 229 | 20.9 | 48.3 | 0.00 | 0.00 | 0.00 | 32 | 1008.6 |
| 20260505194219 | 28 | 170 | 20.9 | 48.3 | 0.00 | 0.00 | 0.00 | 33 | 1008.7 |
| 20260505193713 | 28 | 172 | 22.5 | 45.1 | 0.00 | 0.00 | 0.00 | 32 | 1008.6 |
| 20260505193207 | 28 | 163 | 20.9 | 45.1 | 0.00 | 0.00 | 0.00 | 32 | 1008.7 |
| 20260505192932 | 28 | 189 | 19.3 | 41.8 | 0.00 | 0.00 | 0.00 | 35 | 1008.9 |